Location: Góry Miechowskie
(50.3599°N, 20.1803°E)
Time: 06:47:01
(UTC+00:00)

A-11 Canister half - Pass Details

Date: 13 September 2024
Orbit: 1515 x 1684 km, 47.2° (Epoch: 04 October)

Event Time Altitude Azimuth Distance (km) Brightness Sun altitude
Rises 01:50:44 0° 284° (WNW) 4,667 - -21.7°
Reaches altitude 10° 01:55:37 10° 263° (W) 3,696 - -21.1°
Maximum altitude 02:00:00 14° 234° (SW) 3,372 - -20.5°
Drops below altitude 10° 02:04:26 10° 205° (SSW) 3,734 - -19.9°
Exits shadow 02:08:55 - 185° (S) 4,619 11.2 -19.3°
Sets 02:09:28 0° 183° (S) 4,747 11.2 -19.2°
